Regional Weather Roundup
Issued by NWS

Home | Current Version | Previous Version | Text Only | Print | Product List | Glossary On
Versions: 1 2 3 4 5 6 7 8 9 10 11 12 13 14 15 16 17 18 19 20 21 22 23 24 25 26 27 28 29 30 31 32 33 34 35 36 37 38 39 40 41 42 43 44 45 46 47 48 49 50
000
ASUS43 KIND 261909
RWRIN

WEATHER ROUNDUP FOR INDIANA
NATIONAL WEATHER SERVICE INDIANAPOLIS IN
300 PM EDT TUE JUL 26 2016

NOTE: "FAIR" INDICATES FEW OR NO CLOUDS BELOW 12,000 FEET WITH NO
SIGNIFICANT WEATHER AND/OR OBSTRUCTIONS TO VISIBILITY.

* - STATION DOES NOT REPORT WEATHER SUCH AS PRECIPITATION OR FOG.

+ - STATION NOT QUALITY CONTROLLED BY THE NATIONAL WEATHER SERVICE.
    USE DATA WITH CAUTION...ESPECIALLY DEWPOINT AND RELATIVE
    HUMIDITY OBSERVATIONS.

INZ001>003-010>013-019-020-262000-
NORTHWEST INDIANA

CITY           SKY/WX    TMP DP  RH WIND       PRES   REMARKS
GARY /AIRPORT/ MOSUNNY   86  68  54 N7        30.05F
KNOX *+        MOSUNNY   82  52  34 SE5       30.05F
LA PORTE +     PTSUNNY   85  65  51 CALM      30.06F
MICHIGAN CITY+ SUNNY     82  63  51 N5        30.05F
MONTICELLO +   SUNNY     82  63  51 E6        30.04F
RENSSELAER +   PTSUNNY   82  68  61 SE3       30.05F
VALPARAISO     MOSUNNY   86  65  49 NE6       30.05F

$$

LMZ046-743>745-262000-
SOUTHERN LAKE MICHIGAN

STATION/POSITION TIME  TEMP    WIND        PRES    WAVE
                       AIR SEA DIR/SP/G            HT
                 (UTC) (F)     (DEG/KT/KT) (MB)    (FT)
BURNS HARBOR     1800   76      20/  7/  9 1018.3
MICHIGAN CITY    1800   78     350/  8/  9   N/A
5NW MICH CITY    1800   77 76   10/  6/  6   N/A     0

$$

INZ004-005-014>016-021>024-262000-
NORTH CENTRAL INDIANA

CITY           SKY/WX    TMP DP  RH WIND       PRES   REMARKS
ELKHART        MOSUNNY   84  68  58 E3        30.05F
GOSHEN         MOSUNNY   85  57  38 CALM      30.05F
LOGANSPORT +   MOSUNNY   82  64  54 E5        30.05F
PERU/GRISSOM   PTSUNNY   84  63  48 VRB5      30.03F
ROCHESTER +    SUNNY     86  64  48 CALM      30.05F
SOUTH BEND     MOSUNNY   84  61  45 S5        30.05F
WARSAW +       PTSUNNY   82  63  51 W3        30.05F

$$

INZ006>009-017-018-025>027-262000-
NORTHEAST INDIANA

CITY           SKY/WX    TMP DP  RH WIND       PRES   REMARKS
ANGOLA *+        N/A     86  81  84 S7        30.06S HX 102
AUBURN +       MOSUNNY   88  54  31 N3        30.05F
FORT WAYNE     CLOUDY    85  62  46 S7        30.04F
HUNTINGTON +   CLOUDY    81  66  60 CALM      30.04F

$$

INZ028-029-035-036-043>045-051>053-262000-
WEST CENTRAL INDIANA

CITY           SKY/WX    TMP DP  RH WIND       PRES   REMARKS
CRAWFORDSVL +  MOSUNNY   76  66  71 CALM      30.05F
GREENCASTLE +  CLOUDY    77  72  83 E6        30.05F
LAFAYETTE      PTSUNNY   82  66  58 E6        30.03F
TERRE HAUTE    CLOUDY    79  68  69 E9        30.03F

$$

INZ030>032-037>040-046>048-054>057-064-065-262000-
CENTRAL INDIANA

CITY           SKY/WX    TMP DP  RH WIND       PRES   REMARKS
ANDERSON       SUNNY     77  64  65 CALM      30.06F
COLUMBUS       CLOUDY    77  75  94 N6        30.04S
INDIANAPOLIS   CLOUDY    77  69  76 CALM      30.04F
-EAGLE CREEK   CLOUDY    78  69  73 E3        30.04F
KOKOMO *+      CLOUDY    81  64  57 SE5       30.04F
MARION +       CLOUDY    79  64  59 CALM      30.05F HAZE
MT COMFORT *+  CLOUDY    75  70  83 CALM      30.05F
SHELBYVILLE    CLOUDY    79  67  66 NE5       30.04F
ZIONSVILLE +   CLOUDY    76  65  69 SE3       30.06F

$$

INZ033-034-041-042-049-050-058-059-262000-
EAST CENTRAL INDIANA

CITY           SKY/WX    TMP DP  RH WIND       PRES   REMARKS
MUNCIE         CLOUDY    83  68  60 VRB3      30.04F

$$

INZ060-061-067>069-081>083-085>088-262000-
SOUTHWEST INDIANA

CITY           SKY/WX    TMP DP  RH WIND       PRES   REMARKS
EVANSVILLE     PTSUNNY   88  75  65 NE3       29.99F HX  97
HUNTINGBURG *+ MOSUNNY   88  75  66 NW7       30.00F HX  97
WASHINGTON +   MOSUNNY   84  77  79 MISG      30.00F HX  95

$$

INZ062-063-066-070>080-084-089>092-262000-
SOUTH CENTRAL AND SOUTHEAST INDIANA

CITY           SKY/WX    TMP DP  RH WIND       PRES   REMARKS
BLOOMINGTON    CLOUDY    81  72  74 NE5       30.03F
MADISON *+     PTSUNNY   81  72  74 N6        30.04F
NORTH VERNON + CLOUDY   N/A N/A N/A CALM      30.03F

$$




USA.gov is the U.S. government's official web portal to all federal, state and local government web resources and services.